DW6169 Weather Reports


Display with metric or nautical units.
time (UTC)temp
F
wind
direction
speed
MPH
gust
MPH
rain 1hr
in
rain 24hr
in
rain mn
in
humidity
%
barometer
mb
20260901030559 81 0 0.0 7.0 0.00 0.05 0.05 80 1017.8
20260901030103 81 0 0.0 4.0 0.00 0.05 0.05 80 1018.0
20260901025600 81 173 0.0 4.0 0.00 0.05 0.05 80 1018.1
20260901025104 81 0 1.0 4.0 0.00 0.05 0.05 79 1018.0
20260901024606 81 0 0.0 3.0 0.00 0.05 0.05 79 1018.1
20260901024058 82 0 0.0 3.0 0.00 0.05 0.05 79 1018.0
20260901023601 82 86 0.0 2.0 0.00 0.05 0.05 79 1017.8
20260901023103 82 0 0.0 0.0 0.00 0.05 0.05 78 1017.6
20260901022557 82 0 0.0 0.0 0.00 0.05 0.05 78 1017.3
20260901022058 82 0 0.0 0.0 0.00 0.05 0.05 78 1017.4
20260901021602 82 0 0.0 0.0 0.00 0.05 0.05 77 1017.5
20260901021100 82 0 0.0 0.0 0.00 0.05 0.05 77 1017.4
20260901020603 82 0 0.0 0.0 0.00 0.05 0.05 77 1017.3
20260901015557 83 0 0.0 0.0 0.00 0.05 0.05 76 1017.2
20260901015059 83 0 0.0 0.0 0.00 0.05 0.05 76 1017.2
20260901014601 83 0 0.0 0.0 0.00 0.05 0.05 75 1017.2
20260901014100 83 0 0.0 0.0 0.00 0.05 0.05 75 1017.1
20260901013557 84 0 0.0 0.0 0.00 0.05 0.05 74 1017.0
20260901013109 84 0 0.0 0.0 0.00 0.05 0.05 74 1017.0
20260901012558 84 0 0.0 2.0 0.00 0.05 0.05 74 1016.9
20260901012059 84 0 0.0 2.0 0.00 0.05 0.05 74 1016.8
20260901011603 84 0 0.0 3.0 0.00 0.05 0.05 74 1016.7
20260901011057 84 0 0.0 4.0 0.00 0.05 0.05 74 1016.7
20260901010559 84 0 1.0 8.0 0.00 0.05 0.05 74 1016.6
20260901010108 84 147 0.0 8.0 0.00 0.05 0.05 75 1016.4
20260901005558 85 116 3.0 8.0 0.00 0.05 0.05 75 1016.4
20260901005059 85 108 2.0 7.0 0.00 0.05 0.05 76 1016.4
20260901004607 85 57 3.0 8.0 0.00 0.05 0.05 75 1016.3
20260901004057 85 39 2.0 8.0 0.00 0.05 0.05 75 1016.2
20260901003558 85 66 3.0 8.0 0.00 0.05 0.05 75 1016.2
20260901003108 85 351 1.0 5.0 0.00 0.05 0.05 75 1016.1
20260901002557 85 0 0.0 0.0 0.00 0.05 0.05 76 1016.2
20260901002057 85 0 0.0 6.0 0.00 0.05 0.05 75 1016.2
20260901001603 85 0 2.0 6.0 0.00 0.05 0.05 75 1016.2
20260901001059 85 81 0.0 4.0 0.00 0.05 0.05 75 1016.1
20260901000557 85 0 1.0 9.0 0.00 0.05 0.05 74 1016.1
20260901000106 85 86 1.0 9.0 0.00 0.05 0.05 74 1016.0
20260831235600 85 58 3.0 9.0 0.00 0.05 0.05 75 1016.0
20260831235102 85 323 1.0 6.0 0.00 0.05 0.05 75 1015.9
20260831234603 85 94 0.0 4.0 0.00 0.05 0.05 75 1015.9
20260831234058 85 0 0.0 6.0 0.00 0.05 0.05 75 1015.9
20260831233557 85 26 1.0 6.0 0.00 0.05 0.05 75 1015.9
20260831233101 86 58 0.0 4.0 0.00 0.05 0.05 75 1015.8
20260831232557 85 5 0.0 3.0 0.00 0.05 0.05 75 1016.0
20260831232058 86 0 1.0 6.0 0.00 0.05 0.05 74 1015.9
20260831231613 86 56 0.0 6.0 0.00 0.05 0.05 74 1016.1
20260831231100 86 59 1.0 6.0 0.00 0.05 0.05 74 1015.9
20260831230600 86 106 1.0 6.0 0.00 0.05 0.05 74 1015.9
20260831230106 86 0 2.0 5.0 0.00 0.05 0.05 74 1016.0
20260831225557 86 15 1.0 5.0 0.00 0.05 0.05 74 1016.0
20260831225057 86 63 1.0 4.0 0.00 0.05 0.05 74 1015.9
20260831224600 86 59 0.0 6.0 0.00 0.05 0.05 74 1015.9
20260831224058 86 25 1.0 6.0 0.00 0.05 0.05 74 1016.0
20260831223557 86 128 0.0 7.0 0.00 0.05 0.05 73 1016.1
20260831223110 86 0 2.0 7.0 0.00 0.05 0.05 73 1016.1
20260831222558 86 21 2.0 7.0 0.00 0.05 0.05 74 1016.0
20260831222058 86 30 0.0 6.0 0.00 0.05 0.05 74 1016.0
20260831221604 86 0 2.0 9.0 0.00 0.05 0.05 74 1016.0
20260831221057 86 83 3.0 9.0 0.00 0.05 0.05 74 1015.8
20260831220557 86 90 2.0 8.0 0.00 0.05 0.05 74 1015.7
20260831220103 86 59 2.0 8.0 0.00 0.05 0.05 73 1015.8
20260831215557 86 92 4.0 8.0 0.00 0.05 0.05 74 1015.7
20260831215101 86 78 2.0 6.0 0.00 0.05 0.05 74 1015.6
20260831214602 86 61 1.0 7.0 0.00 0.05 0.05 74 1015.6
20260831214057 86 101 2.0 7.0 0.00 0.05 0.05 74 1015.6
20260831213558 86 0 2.0 6.0 0.00 0.05 0.05 74 1015.6
20260831213108 86 86 2.0 8.0 0.00 0.05 0.05 74 1015.7
20260831212600 87 78 3.0 8.0 0.00 0.05 0.05 74 1015.7
20260831212059 87 60 1.0 7.0 0.00 0.05 0.05 74 1015.7
20260831211619 87 67 2.0 7.0 0.00 0.05 0.05 74 1015.8
20260831211059 87 0 1.0 8.0 0.00 0.05 0.05 73 1015.7
20260831210559 87 53 2.0 8.0 0.00 0.05 0.05 73 1015.7
20260831210110 87 112 3.0 8.0 0.00 0.05 0.05 73 1015.9
20260831205557 87 108 2.0 8.0 0.00 0.05 0.05 74 1016.2
20260831205058 87 102 2.0 7.0 0.00 0.05 0.05 74 1016.1
20260831204603 86 41 1.0 8.0 0.00 0.05 0.05 74 1016.0
20260831204057 86 109 1.0 8.0 0.00 0.05 0.05 75 1015.9
20260831203557 86 36 2.0 6.0 0.00 0.05 0.05 75 1015.9
20260831203115 86 101 1.0 6.0 0.00 0.05 0.05 75 1016.0
20260831202557 86 84 1.0 6.0 0.00 0.05 0.05 75 1015.9
20260831202059 86 0 1.0 7.0 0.00 0.05 0.05 75 1015.7
20260831201615 86 0 1.0 7.0 0.00 0.05 0.05 76 1015.6
20260831201102 86 42 1.0 5.0 0.00 0.05 0.05 76 1015.5
20260831200557 86 88 1.0 5.0 0.00 0.05 0.05 76 1015.3
20260831200121 86 0 1.0 7.0 0.00 0.05 0.05 76 1015.3
20260831195602 86 0 2.0 9.0 0.00 0.05 0.05 75 1015.3
20260831195057 87 117 3.0 9.0 0.00 0.05 0.05 75 1015.5
20260831194642 87 0 1.0 9.0 0.00 0.05 0.05 75 1015.6
20260831194057 88 84 3.0 9.0 0.00 0.05 0.05 74 1015.9
20260831193559 88 52 2.0 8.0 0.00 0.05 0.05 73 1015.9
20260831193102 88 0 1.0 8.0 0.00 0.05 0.05 72 1016.0
20260831192557 88 89 2.0 8.0 0.00 0.05 0.05 72 1016.1
20260831192057 88 69 1.0 6.0 0.00 0.05 0.05 72 1016.2
20260831191608 88 80 1.0 8.0 0.00 0.05 0.05 72 1016.2
20260831191059 88 73 3.0 10.0 0.00 0.05 0.05 72 1016.1
20260831190558 88 64 3.0 10.0 0.00 0.05 0.05 71 1016.0
20260831190109 89 61 3.0 8.0 0.00 0.05 0.05 71 1016.1
20260831185600 89 0 2.0 8.0 0.00 0.05 0.05 71 1016.0
20260831185057 89 117 1.0 6.0 0.00 0.05 0.05 71 1016.1
20260831184601 89 56 1.0 7.0 0.00 0.05 0.05 71 1016.3
20260831184059 89 107 2.0 9.0 0.00 0.05 0.05 70 1016.5
20260831183557 89 78 3.0 9.0 0.00 0.05 0.05 70 1016.6
20260831183106 89 76 1.0 8.0 0.00 0.05 0.05 70 1016.6
20260831182557 89 96 2.0 6.0 0.00 0.05 0.05 71 1016.5
20260831182057 89 0 2.0 5.0 0.00 0.05 0.05 72 1016.5
20260831181612 88 9 0.0 5.0 0.00 0.05 0.05 72 1016.5
20260831181057 88 17 2.0 7.0 0.00 0.05 0.05 72 1016.6
20260831180557 88 44 2.0 7.0 0.00 0.05 0.05 73 1016.8
20260831175602 88 0 0.0 3.0 0.00 0.05 0.05 72 1017.1
20260831175057 88 240 0.0 3.0 0.00 0.05 0.05 71 1017.2
20260831174609 89 239 0.0 6.0 0.00 0.05 0.05 71 1017.1
20260831174100 89 0 0.0 6.0 0.00 0.05 0.05 71 1017.1
20260831173601 89 0 0.0 3.0 0.00 0.05 0.05 70 1017.1
20260831173105 89 0 0.0 2.0 0.00 0.05 0.05 69 1017.2
20260831172601 90 0 0.0 7.0 0.00 0.05 0.05 68 1017.2
20260831172057 91 0 2.0 7.0 0.00 0.05 0.05 67 1017.3
20260831171603 92 248 1.0 6.0 0.00 0.05 0.05 68 1017.2
20260831171101 92 106 1.0 6.0 0.00 0.05 0.05 68 1017.1
20260831170600 91 98 1.0 7.0 0.00 0.05 0.05 68 1017.2
20260831170110 91 220 2.0 7.0 0.00 0.05 0.05 69 1017.1
20260831165559 91 35 2.0 7.0 0.00 0.05 0.05 67 1017.2
20260831165059 92 104 0.0 8.0 0.00 0.05 0.05 68 1017.3
20260831164601 91 89 2.0 8.0 0.00 0.05 0.05 69 1017.3
20260831164057 91 43 3.0 12.0 0.00 0.05 0.05 69 1017.1
20260831163557 91 84 3.0 12.0 0.00 0.05 0.05 69 1017.1
20260831163103 91 103 4.0 9.0 0.00 0.05 0.05 68 1017.3
20260831162558 91 58 3.0 9.0 0.00 0.05 0.05 68 1017.3
20260831162102 90 0 2.0 9.0 0.00 0.05 0.05 67 1017.5
20260831161611 90 126 4.0 9.0 0.00 0.05 0.05 67 1017.7
20260831161057 91 78 2.0 7.0 0.00 0.05 0.05 66 1017.7
20260831160603 91 180 2.0 9.0 0.00 0.05 0.05 67 1017.7
20260831160108 91 49 3.0 9.0 0.00 0.05 0.05 67 1017.7
20260831155600 91 92 3.0 9.0 0.00 0.05 0.05 65 1017.8
20260831155100 92 0 1.0 8.0 0.00 0.05 0.05 67 1017.9
20260831154637 91 90 1.0 8.0 0.00 0.05 0.05 67 1017.9
20260831154058 91 134 1.0 8.0 0.00 0.05 0.05 68 1017.9
20260831153557 91 50 2.0 7.0 0.00 0.05 0.05 68 1018.0
20260831153119 90 0 1.0 7.0 0.00 0.05 0.05 69 1018.0
20260831152559 90 49 3.0 7.0 0.00 0.05 0.05 67 1018.0
20260831152057 90 89 2.0 6.0 0.00 0.05 0.05 68 1018.0
20260831151605 90 33 1.0 7.0 0.00 0.05 0.05 69 1018.0
20260831151056 89 126 1.0 7.0 0.00 0.05 0.05 70 1018.0
20260831150559 89 111 1.0 7.0 0.00 0.05 0.05 70 1018.1
20260831150107 89 0 2.0 8.0 0.00 0.05 0.05 71 1017.9
20260831145601 89 42 3.0 8.0 0.00 0.05 0.05 69 1018.0
20260831145101 89 102 0.0 8.0 0.00 0.05 0.05 69 1017.9
20260831144658 89 76 3.0 9.0 0.00 0.05 0.05 69 1017.8
20260831144057 90 103 1.0 9.0 0.00 0.05 0.05 69 1017.8
20260831143601 90 129 3.0 8.0 0.00 0.05 0.05 68 1017.7
20260831143105 90 115 1.0 6.0 0.00 0.05 0.05 69 1017.7
20260831142558 89 190 2.0 6.0 0.00 0.05 0.05 69 1017.6
20260831142058 89 246 2.0 5.0 0.00 0.05 0.05 70 1017.6
20260831141601 89 46 1.0 4.0 0.00 0.05 0.05 70 1017.7
20260831141057 89 0 0.0 7.0 0.00 0.05 0.05 70 1017.7
20260831140557 88 0 1.0 7.0 0.00 0.05 0.05 70 1017.6
20260831140107 88 77 1.0 7.0 0.00 0.05 0.05 69 1017.5
20260831135558 88 98 1.0 4.0 0.00 0.05 0.05 70 1017.6
20260831135100 87 36 1.0 6.0 0.00 0.05 0.05 72 1017.6
20260831134606 86 80 1.0 6.0 0.00 0.05 0.05 74 1017.5
20260831134059 86 0 0.0 4.0 0.00 0.05 0.05 76 1017.5
20260831133558 85 49 0.0 6.0 0.00 0.05 0.05 77 1017.5
20260831133113 84 57 2.0 6.0 0.00 0.05 0.05 79 1017.5
20260831132559 84 0 0.0 1.0 0.00 0.05 0.05 81 1017.3
20260831132058 83 0 0.0 0.0 0.00 0.05 0.05 82 1017.2
20260831131610 82 0 0.0 0.0 0.00 0.05 0.05 83 1017.2
20260831131056 82 0 0.0 0.0 0.00 0.05 0.05 84 1017.2
20260831130557 81 0 0.0 2.0 0.00 0.05 0.05 84 1017.0
20260831130109 81 0 0.0 2.0 0.00 0.05 0.05 84 1017.0
20260831125559 81 0 0.0 2.0 0.00 0.05 0.05 85 1017.1
20260831125058 81 0 0.0 0.0 0.00 0.05 0.05 85 1017.0
20260831124621 81 0 0.0 0.0 0.00 0.05 0.05 85 1017.0
20260831124100 80 0 0.0 0.0 0.00 0.05 0.05 85 1017.0
20260831123559 80 0 0.0 4.0 0.00 0.05 0.05 85 1016.9
20260831123103 80 0 0.0 4.0 0.00 0.05 0.05 85 1016.8
20260831122557 80 113 0.0 3.0 0.00 0.05 0.05 86 1016.8
20260831122102 80 0 0.0 3.0 0.00 0.05 0.05 86 1016.7
20260831121608 80 0 0.0 3.0 0.00 0.05 0.05 86 1016.7
20260831121100 80 0 0.0 3.0 0.00 0.05 0.05 86 1016.6
20260831120600 80 0 0.0 3.0 0.00 0.05 0.05 86 1016.6
20260831120109 80 0 0.0 0.0 0.00 0.05 0.05 86 1016.6
20260831115559 80 0 0.0 0.0 0.00 0.05 0.05 86 1016.6
20260831115059 80 0 0.0 0.0 0.00 0.05 0.05 86 1016.5
20260831114604 80 0 0.0 0.0 0.00 0.05 0.05 86 1016.6
20260831114057 80 0 0.0 0.0 0.00 0.05 0.05 86 1016.6
20260831113600 79 0 0.0 3.0 0.00 0.05 0.05 86 1016.4
20260831113112 79 0 0.0 3.0 0.00 0.05 0.05 86 1016.4
20260831112557 79 0 0.0 0.0 0.00 0.05 0.05 86 1016.3
20260831112057 79 0 0.0 0.0 0.00 0.05 0.05 86 1016.3
20260831111606 79 0 0.0 0.0 0.00 0.05 0.05 86 1016.2
20260831111057 79 0 0.0 0.0 0.00 0.05 0.05 86 1016.0
20260831110559 79 0 0.0 0.0 0.00 0.05 0.05 86 1015.9
20260831110105 79 0 0.0 0.0 0.00 0.05 0.05 86 1015.9
20260831105558 80 0 0.0 0.0 0.00 0.05 0.05 86 1015.9
20260831105058 80 0 0.0 0.0 0.00 0.05 0.05 86 1015.8
20260831104600 80 0 0.0 0.0 0.00 0.05 0.05 86 1015.7
20260831104057 80 0 0.0 0.0 0.00 0.05 0.05 86 1015.7
20260831103557 80 0 0.0 0.0 0.00 0.05 0.05 86 1015.5
20260831103104 80 0 0.0 0.0 0.00 0.05 0.05 86 1015.6
20260831102559 80 0 0.0 0.0 0.00 0.05 0.05 86 1015.5
20260831102059 80 0 0.0 0.0 0.00 0.05 0.05 86 1015.6
20260831101603 80 0 0.0 0.0 0.00 0.05 0.05 86 1015.6
20260831101059 80 0 0.0 0.0 0.00 0.05 0.05 86 1015.6
20260831100559 80 0 0.0 0.0 0.00 0.05 0.05 86 1015.6
20260831100135 80 0 0.0 0.0 0.00 0.05 0.05 86 1015.7
20260831095604 80 0 0.0 0.0 0.00 0.05 0.05 86 1015.7
20260831095059 80 0 0.0 0.0 0.00 0.05 0.05 85 1015.6
20260831094603 80 0 0.0 2.0 0.02 0.05 0.05 85 1015.6
20260831094057 80 0 0.0 2.0 0.05 0.05 0.05 85 1015.6
20260831093559 80 0 0.0 2.0 0.05 0.05 0.05 85 1015.7
20260831093107 80 0 0.0 2.0 0.05 0.05 0.05 85 1015.6
20260831092558 80 0 0.0 0.0 0.05 0.05 0.05 84 1015.5
20260831092100 80 0 0.0 3.0 0.05 0.05 0.05 84 1015.5
20260831091606 80 0 0.0 3.0 0.05 0.05 0.05 84 1015.3
20260831091100 80 94 0.0 3.0 0.05 0.05 0.05 84 1015.3
20260831090600 80 0 1.0 6.0 0.05 0.05 0.05 83 1015.4
20260831090104 80 0 2.0 6.0 0.05 0.05 0.05 83 1015.4
20260831085558 81 0 1.0 7.0 0.05 0.05 0.05 82 1015.6
20260831085057 81 75 1.0 10.0 0.05 0.05 0.05 82 1015.6
20260831084636 82 47 3.0 13.0 0.03 0.03 0.03 81 1015.5
20260831084059 82 141 4.0 13.0 0.00 0.00 0.00 80 1015.5
20260831083559 82 79 3.0 7.0 0.00 0.00 0.00 80 1015.5
20260831083105 82 74 0.0 3.0 0.00 0.00 0.00 80 1015.5
20260831082558 82 76 0.0 6.0 0.00 0.00 0.00 81 1015.5
20260831082226 82 0 1.0 6.0 0.00 0.00 0.00 81 1015.4
20260831081608 83 58 2.0 6.0 0.00 0.00 0.00 81 1015.5
20260831081058 82 0 0.0 6.0 0.00 0.00 0.00 80 1015.6
20260831080558 82 108 0.0 6.0 0.00 0.00 0.00 80 1015.6
20260831080131 82 78 0.0 0.0 0.00 0.00 0.00 80 1015.6
20260831075558 82 0 0.0 0.0 0.00 0.00 0.00 80 1015.4
20260831075100 82 0 0.0 0.0 0.00 0.00 0.00 80 1015.5
20260831074620 82 0 0.0 0.0 0.00 0.00 0.00 80 1015.5
20260831074100 82 0 0.0 0.0 0.00 0.00 0.00 80 1015.6
20260831073600 82 0 0.0 0.0 0.00 0.00 0.00 80 1015.7
20260831073125 82 0 0.0 2.0 0.00 0.00 0.00 80 1015.7
20260831072559 82 0 0.0 2.0 0.00 0.00 0.00 80 1015.7
20260831072101 82 0 0.0 2.0 0.00 0.00 0.00 80 1015.7
20260831071622 82 0 0.0 0.0 0.00 0.00 0.00 80 1015.9
20260831071100 82 0 0.0 0.0 0.00 0.00 0.00 80 1015.8
20260831070558 82 0 0.0 3.0 0.00 0.00 0.00 79 1015.7
20260831070107 82 0 0.0 4.0 0.00 0.00 0.00 80 1015.7
20260831065558 83 118 0.0 4.0 0.00 0.00 0.00 80 1015.7
20260831065058 83 0 0.0 3.0 0.00 0.00 0.00 80 1015.7
20260831064604 83 0 1.0 3.0 0.00 0.00 0.00 80 1015.8
20260831064059 83 0 0.0 2.0 0.00 0.00 0.00 80 1015.7
20260831063557 83 0 0.0 7.0 0.00 0.00 0.00 80 1015.7
20260831063116 83 0 0.0 7.0 0.00 0.00 0.00 80 1015.8
20260831062602 83 84 2.0 7.0 0.00 0.00 0.00 80 1015.8
20260831062100 82 0 1.0 4.0 0.00 0.00 0.00 80 1015.9
20260831061602 82 96 0.0 4.0 0.00 0.00 0.00 80 1015.9
20260831061100 82 0 0.0 4.0 0.00 0.00 0.00 80 1016.0
20260831060559 83 0 0.0 4.0 0.00 0.00 0.00 80 1016.0
20260831060113 83 0 1.0 4.0 0.00 0.00 0.00 80 1016.1
20260831055600 83 94 0.0 3.0 0.00 0.00 0.00 80 1016.2
20260831055057 83 0 0.0 3.0 0.00 0.00 0.00 80 1016.3
20260831054605 83 0 0.0 4.0 0.00 0.00 0.00 80 1016.4
20260831054059 83 0 1.0 5.0 0.00 0.00 0.00 80 1016.5
20260831053558 83 0 1.0 5.0 0.00 0.00 0.00 80 1016.6
20260831053127 82 52 0.0 5.0 0.00 0.00 0.00 80 1016.6
20260831052559 82 0 0.0 2.0 0.00 0.00 0.00 80 1016.7
20260831052101 82 0 0.0 3.0 0.00 0.00 0.00 80 1016.9
20260831051605 82 134 0.0 3.0 0.00 0.00 0.00 80 1016.8
20260831051059 82 115 1.0 5.0 0.00 0.00 0.00 80 1016.9
20260831050559 82 0 0.0 6.0 0.00 0.00 0.00 80 1017.0
20260831050124 82 67 2.0 6.0 0.00 0.00 0.00 81 1016.9
20260831045557 82 0 0.0 5.0 0.00 0.00 0.00 81 1017.0
20260831045058 82 83 0.0 6.0 0.00 0.00 0.00 81 1017.1
20260831044602 82 77 0.0 6.0 0.00 0.00 0.00 81 1017.0
20260831044059 82 105 1.0 6.0 0.00 0.00 0.00 81 1017.0
20260831043557 82 0 0.0 6.0 0.00 0.00 0.00 81 1017.0
20260831043108 82 44 0.0 6.0 0.00 0.00 0.00 81 1017.0
20260831042600 82 0 1.0 6.0 0.00 0.00 0.00 81 1017.1
20260831042103 82 0 0.0 2.0 0.00 0.00 0.00 81 1017.1
20260831041620 82 0 0.0 3.0 0.00 0.00 0.00 81 1017.2
20260831041058 82 0 0.0 3.0 0.00 0.00 0.00 81 1017.2
20260831040600 82 0 0.0 3.0 0.00 0.00 0.00 81 1017.2
20260831040114 82 0 0.0 5.0 0.00 0.00 0.00 81 1017.2
20260831035558 82 63 1.0 5.0 0.00 0.00 0.00 81 1017.3
20260831035058 82 88 1.0 5.0 0.00 0.00 0.00 81 1017.2
20260831034609 82 0 1.0 5.0 0.00 0.00 0.00 81 1017.3
20260831034104 82 128 0.0 5.0 0.00 0.00 0.00 81 1017.3
20260831033600 82 86 2.0 5.0 0.00 0.00 0.00 80 1017.2
20260831033113 82 106 2.0 6.0 0.00 0.00 0.00 80 1017.3
20260831032557 82 0 0.0 6.0 0.00 0.00 0.00 80 1017.2
20260831032100 82 0 1.0 8.0 0.00 0.00 0.00 80 1017.3
20260831031615 82 0 1.0 8.0 0.00 0.00 0.00 80 1017.3
20260831031059 82 105 1.0 5.0 0.00 0.00 0.00 79 1017.2